Regional Weather Roundup
Issued by NWS Upton, NY

Home | Current Version | Previous Version | Text Only | Print | Product List | Glossary On
Versions: 1 2 3 4 5 6 7 8 9 10 11 12 13 14 15 16 17 18 19 20 21 22 23 24 25 26 27 28
000
ASUS41 KOKX 020404
RWROKX

REGIONAL WEATHER ROUNDUP
NATIONAL WEATHER SERVICE NEW YORK NY
1200 AM EDT MON MAY 02 2016

NOTE: "FAIR" INDICATES FEW OR NO CLOUDS BELOW 12,000 FEET WITH NO
SIGNIFICANT WEATHER AND/OR OBSTRUCTIONS TO VISIBILITY.

NYZ071-072-176-178-NJZ106-104-020500-
NEW YORK CITY METRO AREA


CITY           SKY/WX    TMP DP  RH WIND       PRES   REMARKS
CENTRAL PARK   CLOUDY    46  44  93 CALM      30.11S FOG
LAGUARDIA APRT CLOUDY    47  44  90 NE12      30.08F
KENNEDY INTL   DRIZZLE   45  42  89 N9        30.10R FOG
NEWARK/LIBERTY CLOUDY    45  43  93 NE9       30.09S FOG
BRNX BOT. GARD   N/A     45  43  93 N6        30.09F
TETERBORO      DRIZZLE   44  41  89 N6        30.08S FOG
$$

NYZ177-179-078>081-020500-
LONG ISLAND NEW YORK

CITY           SKY/WX    TMP DP  RH WIND       PRES   REMARKS
FARMINGDALE    CLOUDY    45  43  93 N8        30.08R
ISLIP          CLOUDY    45  43  93 N8        30.06F
SHIRLEY        CLOUDY    46  44  93 N5        30.07F FOG
RIVERHEAD        N/A     46  45  93 NE2       30.07R
WESTHAMPTON    CLOUDY    45  45 100 E8        30.07F FOG
EAST HAMPTON   CLOUDY    45  44  97 E9        30.06F
MONTAUK POINT    N/A     47  46  97 E9G18     30.06F
$$

NYZ052-065-067-020500-
HUDSON VALLEY

CITY           SKY/WX    TMP DP  RH WIND       PRES   REMARKS
WHITE PLAINS   DRIZZLE   42  41  96 CALM      30.07F FOG
NEWBURGH       CLOUDY    43  43 100 SE8       30.09F
MONTGOMERY     CLOUDY    44  42  93 E3        30.06F
POUGHKEEPSIE   CLOUDY    44  41  89 SE3       30.08F
ALBANY         CLOUDY    45  38  76 S6        30.05F
$$

NJZ001-105-106-008-010-013-015-019>022-104-020500-
NEW JERSEY

CITY           SKY/WX    TMP DP  RH WIND       PRES   REMARKS
NEWARK/LIBERTY CLOUDY    45  43  93 NE9       30.09S FOG
TETERBORO      DRIZZLE   44  41  89 N6        30.08S FOG
CALDWELL       CLOUDY    44  42  93 E6        30.10S FOG
MORRISTOWN     CLOUDY    45  43  93 NE7       30.10R FOG
SOMERVILLE     CLOUDY    47  45  93 VRB5      30.07S FOG
SUSSEX         CLOUDY    46  44  93 CALM      30.07F
ANDOVER          N/A     45  43  93 VRB3      30.06F
TRENTON        CLOUDY    47  45  93 E6        30.07S FOG
MILLVILLE      CLOUDY    51  50  96 NE6       30.04F
ATLANTIC CITY  FOG       49  48  97 NE6       30.04F VSB 1
WRIGHTSTOWN    CLOUDY    46  45  98 NE7       30.04S
TOMS RIVER     CLOUDY    46  43  87 NE9       30.06F
BELMAR         CLOUDY    46  45  96 N8        30.08R FOG
$$

PAZ047>061-062-071-020500-
EASTERN PENNSYLVANIA

CITY           SKY/WX    TMP DP  RH WIND       PRES   REMARKS
PHILADELPHIA   DRIZZLE   51  47  86 E7        30.07S
ALLENTOWN      CLOUDY    49  46  90 E6        30.07R
SCRANTON       CLOUDY    48  45  89 E3        30.02F
$$

CTZ002-004>006-009-010-012-RIZ004-006-007-MAZ004-011-015-020500-
SOUTHERN NEW ENGLAND
 IN CT

CITY           SKY/WX    TMP DP  RH WIND       PRES   REMARKS
BRADLEY INTL   DRIZZLE   41  39  93 N3        30.10F FOG
HARTFORD       LGT RAIN  44  41  89 N3        30.11F FOG
DANBURY        CLOUDY    41  39  93 E5        30.09F FOG
WTRBRY/OXFORD    N/A     39  37  93 NE6       30.10F WCI  35
BRIDGEPORT     CLOUDY    44  42  93 NE9       30.09F FOG
MERIDEN        CLOUDY    43  40  89 CALM      30.10F FOG
NEW HAVEN      CLOUDY    43  41  93 N8        30.09F FOG
CHESTER        LGT RAIN  43  43 100 N5        30.09S
GROTON         CLOUDY    45  45 100 N9        30.08F FOG
WILLIMANTIC    CLOUDY    43  40  89 N5        30.11F FOG

 IN RI

CITY           SKY/WX    TMP DP  RH WIND       PRES   REMARKS
PROVIDENCE     LGT RAIN  42  40  92 N8        30.11F FOG
BLOCK ISLAND   LGT RAIN  46  46 100 E9G18     30.07F FOG
WESTERLY       CLOUDY    46  43  89 N5        30.08F FOG

 IN MA

CITY           SKY/WX    TMP DP  RH WIND       PRES   REMARKS
BOSTON         DRIZZLE   43  40  89 E5        30.13F FOG
WORCESTER      FOG       38  37  97 E3        30.09F VSB 1/4
WESTFIELD      CLOUDY    41  39  93 CALM      30.11F FOG
PROVINCETOWN   LGT RAIN  46  45  96 E8        30.12F
NANTUCKET      LGT RAIN  48  46  93 E13       30.09F FOG
$$

ANZ330-335-338-340-345-350-353-355-020500-
COASTAL MARINE OBSERVATIONS


STATION/POSITION TIME  SKY/WX   TEMP    WIND        PRES    VSBY  WAVE
                                AIR SEA DIR/SP/G                  HT/PER
                 (UTC)          (F)     (DEG/KT/KT) (MB)    (MI)  (FT/S)
NY HARB ENTRANCE 0250            47 50   70/ 19/ 21 1017.1          6/ 6
20S FIRE ISLAND  0250            46 48   60/ 17/ 19 1017.3          6/ 6
GREAT SOUTH BAY  0315            47 56   70/ 12/ 16   N/A
23 SSW MONTAUK P 0350            46 47   80/ 16/ 17 1016.4          5/10
15 E BARNEGAT LI 0322               51                N/A           6/ 9
HUDSON CANYON    0250            49 49              1016.3          6/10
KINGS POINT      0300            45 53              1018.5
EXECUTION ROCKS  NOT AVBL
CENTRAL LI SOUND 0300            46      80/ 16/ 19   N/A           2/ 4
EASTERN LI SOUND 0300            46 47   70/ 14/ 17   N/A
ROBBINS REEF     0318            46      50/ 11/ 12 1018.0
$$


>>>>>>>>>>>>>>>>>>>>>>>>>>>> KEY <<<<<<<<<<<<<<<<<<<<<<<<<<<
>                                                          <
>     SKY/WX - SKY CONDITION/PRESENT WEATHER               <
>     TMP    - TEMPERATURE IN FAHRENHEIT                   <
>     DP     - DEWPOINT IN FAHRENHEIT                      <
>     RH     - RELATIVE HUMIDITY IN PERCENT                <
>     WIND   - DIRECTION AND SPEED IN MPH                  <
>     PRES   - MEAN SEA LEVEL PRESSURE IN INCHES OF HG     <
>     WCI    - WIND CHILL INDEX                            <
>     VSB    - VISIBILITY IN MILES                         <
>     HX     - HEAT INDEX                                  <
>     TC     - TEMPERATURE IN CELSIUS                      <
>     VRB    - VARIABLE WIND DIRECTION                     <
>                                                          <
>>>>>>>>>>>>>>>>>>>>>>>>>>>> KEY <<<<<<<<<<<<<<<<<<<<<<<<<<<






USA.gov is the U.S. government's official web portal to all federal, state and local government web resources and services.